Regional Weather Roundup
Issued by NWS Midland/Odessa, TX

Skip options and go directly to product.
Home | Oldest Version | Next Version | Current Version | All | Text Only | Save Text | Print | Product List | Glossary On

Skip product version selection by date and time.   
732
ASUS44 KMAF 262301
RWRMAF
MIDLAND AREA WEATHER ROUNDUP
NATIONAL WEATHER SERVICE MIDLAND TX
500 PM CST SUN FEB 26 2017

...IN SOUTHWEST TEXAS AND SOUTHEAST NEW MEXICO...

CITY           SKY/WX    TMP DP  RH WIND       PRES   REMARKS
ALPINE         CLOUDY    72  11   9 W17G24    29.93S
ANDREWS        FAIR      66  15  14 CALM      29.83S
ARTESIA        SUNNY     68  16  13 W22G28    29.83R
BIG SPRING     CLOUDY    69  16  13 SW10      29.85S
CARLSBAD       SUNNY     69  18  14 W24G35    29.81R
DRYDEN           N/A     76  30  18 S10       29.80S
FORT STOCKTON  MOSUNNY   74  17  11 NW9       29.83S
GUAD PASS      CLOUDY    58  16  19 SW38G49     N/A
HOBBS          PTSUNNY   64   9  11 SW16      29.83S
MARFA          CLOUDY    67  11  11 SW13      29.91F
MIDLAND AIRPK  PTSUNNY   70  15  12 CALM      29.83S
MIDLAND INTL   PTSUNNY   71  13  10 W13       29.82F
ODESSA         PTSUNNY   70  11  10 W13       29.83S
PECOS          MOSUNNY   75  17  11 SW16G22   29.80S
PRESIDIO       FAIR      80  15   8 CALM      29.81F
SEMINOLE       CLOUDY    64  17  16 SW10G21   29.84F
SNYDER         MOSUNNY   68  20  16 W8        29.84S
WINK           CLOUDY    71  13  10 SW9       29.79F
$$
...OTHER STATIONS IN TEXAS...

CITY           SKY/WX    TMP DP  RH WIND       PRES   REMARKS
ABILENE        CLOUDY    70  34  26 SW9       29.81S
AMARILLO       MOSUNNY   59  12  15 W6        29.81S
AUSTIN         CLOUDY    72  62  71 SE10      29.85S
BROWNSVILLE    NOT AVBL
CORPUS CHRISTI MOSUNNY   78  66  66 SE26G35   29.84F
DALLAS FTW     CLOUDY    62  52  69 S15       29.85F
DEL RIO        CLOUDY    74  52  46 SE8       29.81S
EL PASO        PTSUNNY   67  18  15 W18G29    29.83R
HOUSTON INT    CLOUDY    70  59  68 SE21      29.94S
LUBBOCK        CLOUDY    63  10  12 W13       29.83S
SAN ANGELO     MOSUNNY   73  37  27 SW10      29.82S
SAN ANTONIO    PTSUNNY   76  62  62 SE6       29.83F
WACO           CLOUDY    65  57  75 S8        29.87F
WICHITA FALLS  NOT AVBL
$$
...OTHER LOCATIONS IN NEW MEXICO...

CITY           SKY/WX    TMP DP  RH WIND       PRES   REMARKS
ALAMAGORDO     CLOUDY    59  27  29 S12G20    29.86F
ALBUQUERQUE    CLOUDY    42  23  46 E3        29.91R
CANNON AFB     CLOUDY    54  18  24 W24G30    29.85R
CLOVIS         MOSUNNY   54  21  28 W23G32    29.85R
HOLLOMAN AFB   CLOUDY    63  22  21 SW18G29   29.87F
ROSWELL        PTSUNNY   67  13  12 W13G24    29.84S
RUIDOSO        CLOUDY    41  19  42 W21G29    29.94R WCI  32
SANTA FE       MOSUNNY   41  20  43 SW7       29.88S WCI  36
TRUTH OR CONSE CLOUDY    53  22  29 W20G32    29.88R
TUCUMCARI      MOSUNNY   57  12  17 W29G36    29.78S
$$

  • National Weather Service
  • Southern Region Headquarters
  • 819 Taylor Street, Room 10A06
  • Fort Worth, TX 76102
  • Page Author: NWS Fort Worth
  • Web Master: SR-SRH.Webmaster@noaa.gov
  •  
  • Page last modified: 30-Sep-2016 6:36 PM UTC
USA.gov is the U.S. government's official web portal to all federal, state and local government web resources and services.